Location: *
(32.8140°S, 174.6161°E)
Time: 04:09:09
(UTC+00:00)

NOSS 3-4 (A) - Pass Details

Date: 10 December 2019
Orbit: 904 x 1309 km, 63.4° (Epoch: 19 January)

Event Time Altitude Azimuth Distance (km) Brightness Sun altitude
Exits shadow 15:12:51 22° 352° (N) 2,521 5.2 -19.9°
Maximum altitude 15:18:22 62° 65° (ENE) 1,451 4.4 -19.1°
Drops below altitude 10° 15:26:14 10° 143° (SE) 3,266 7.5 -17.9°
Sets 15:29:01 0° 145° (SE) 4,198 8.4 -17.5°
